TimeEST,TemperatureF,Dew PointF,Humidity,Sea Level PressureIn,VisibilityMPH,Wind Direction,Wind SpeedMPH,Gust SpeedMPH,PrecipitationIn,Events,Conditions,WindDirDegrees,DateUTC
12:53 AM,62.1,57.0,84,30.02,10.0,Calm,Calm,-,N/A,,Scattered Clouds,0,2012-12-25 05:53:00
1:53 AM,60.1,55.9,86,30.02,10.0,Calm,Calm,-,N/A,,Scattered Clouds,0,2012-12-25 06:53:00
2:53 AM,61.0,57.0,87,30.00,10.0,Calm,Calm,-,N/A,,Scattered Clouds,0,2012-12-25 07:53:00
3:53 AM,60.1,57.0,90,30.00,10.0,WNW,3.5,-,N/A,,Scattered Clouds,290,2012-12-25 08:53:00
4:53 AM,60.1,55.9,86,29.99,10.0,Calm,Calm,-,N/A,,Scattered Clouds,0,2012-12-25 09:53:00
5:53 AM,59.0,55.9,90,30.00,10.0,Calm,Calm,-,N/A,,Partly Cloudy,0,2012-12-25 10:53:00
6:53 AM,57.0,55.0,93,30.01,10.0,Calm,Calm,-,N/A,,Scattered Clouds,0,2012-12-25 11:53:00
7:53 AM,60.1,57.0,90,30.02,10.0,Calm,Calm,-,N/A,,Mostly Cloudy,0,2012-12-25 12:53:00
8:53 AM,68.0,60.1,76,30.04,10.0,NW,3.5,-,N/A,,Scattered Clouds,320,2012-12-25 13:53:00
9:53 AM,75.0,60.1,60,30.05,10.0,Calm,Calm,-,N/A,,Scattered Clouds,0,2012-12-25 14:53:00
10:53 AM,77.0,61.0,58,30.04,10.0,East,9.2,-,N/A,,Scattered Clouds,100,2012-12-25 15:53:00
11:53 AM,78.1,60.1,54,30.02,10.0,SSE,9.2,-,N/A,,Scattered Clouds,150,2012-12-25 16:53:00
12:53 PM,78.1,59.0,52,29.98,10.0,SE,12.7,20.7,N/A,,Mostly Cloudy,140,2012-12-25 17:53:00
1:53 PM,78.1,57.9,50,29.96,10.0,SE,13.8,19.6,N/A,,Mostly Cloudy,130,2012-12-25 18:53:00
2:53 PM,75.9,57.9,54,29.96,10.0,SE,12.7,-,N/A,,Mostly Cloudy,140,2012-12-25 19:53:00
3:53 PM,75.9,59.0,56,29.95,10.0,SSE,15.0,19.6,N/A,,Mostly Cloudy,160,2012-12-25 20:53:00
4:53 PM,73.9,59.0,59,29.94,10.0,SE,10.4,-,N/A,,Mostly Cloudy,140,2012-12-25 21:53:00
5:53 PM,73.9,60.1,62,29.94,10.0,SSE,10.4,-,N/A,,Mostly Cloudy,150,2012-12-25 22:53:00
6:53 PM,73.0,61.0,66,29.96,10.0,SSE,10.4,-,N/A,,Mostly Cloudy,150,2012-12-25 23:53:00
7:53 PM,73.0,61.0,66,29.96,10.0,SSE,9.2,-,N/A,,Mostly Cloudy,150,2012-12-26 00:53:00
8:53 PM,73.0,60.1,64,29.96,10.0,SSE,9.2,-,N/A,,Mostly Cloudy,150,2012-12-26 01:53:00
9:53 PM,73.9,61.0,64,29.95,10.0,SSE,13.8,24.2,N/A,,Overcast,150,2012-12-26 02:53:00
10:53 PM,73.9,62.1,66,29.95,10.0,SSE,12.7,-,N/A,,Overcast,150,2012-12-26 03:53:00
11:53 PM,73.9,62.1,66,29.95,10.0,SSE,10.4,-,N/A,,Mostly Cloudy,150,2012-12-26 04:53:00